Theta_e
337 336 336 335 335 334 333 332 331 330 329 328 326 325 324 322 322 321 320 319 318 317 315 314 314 312 310 311 312 313 313 314 314 312 311 311 310 310 310 309 309 308
337 336 336 335 334 334 333 332 331 330 329 327 326 325 323 322 321 320 319 318 317 316 314 313 312 311 309 309 311 312 312 312 311 310 310 309 309 308 308 307 307 307
337 336 335 335 334 333 332 331 331 330 329 327 326 324 323 322 321 321 319 318 317 315 313 312 311 310 309 309 310 311 311 310 310 309 308 308 307 306 306 305 305 305
337 336 335 335 334 333 332 331 330 329 329 327 326 324 323 322 321 320 319 318 317 315 313 311 310 310 309 309 309 310 310 309 308 308 307 306 306 305 304 304 303 303
337 336 335 335 334 333 332 331 330 329 328 327 326 324 323 322 321 320 318 317 317 316 312 310 310 309 309 308 308 308 308 308 307 306 306 305 304 303 303 302 302 302
337 336 335 334 334 332 331 331 330 329 328 326 326 324 323 322 321 319 318 317 316 315 311 309 309 309 308 307 307 307 306 306 306 305 305 305 304 303 302 301 302 302
337 335 335 334 333 332 331 331 330 329 327 326 325 324 323 322 321 319 318 317 315 313 310 309 309 308 307 306 306 306 305 305 305 305 304 304 303 303 303 303 303 303
336 335 334 333 332 332 331 330 329 328 327 326 324 323 322 321 320 319 317 316 314 311 309 308 308 307 306 306 306 306 306 305 305 304 304 304 304 304 305 304 304 304
336 334 333 333 332 331 330 329 329 328 326 326 324 323 322 321 320 318 316 315 313 310 309 308 308 307 306 306 306 306 306 305 304 303 304 305 306 306 306 305 304 304
336 334 333 332 331 330 330 329 328 327 326 325 324 323 322 320 319 317 316 314 312 310 309 308 308 307 306 306 306 305 305 304 304 303 304 306 305 305 305 304 304 304
336 334 332 332 331 330 329 328 328 327 325 324 323 322 321 319 318 317 315 314 312 310 308 308 308 307 306 306 306 306 305 304 303 304 305 305 304 304 303 303 303 304
335 334 332 331 331 330 329 328 327 326 325 324 323 322 320 319 317 316 315 313 312 310 308 308 308 307 306 306 306 306 305 304 303 304 305 304 304 304 303 302 303 304
335 333 332 331 330 329 328 328 327 326 325 323 322 322 320 318 317 316 315 314 312 310 308 308 307 306 306 306 306 306 306 304 304 305 304 304 304 304 303 303 304 305
335 333 332 331 330 329 328 327 326 325 325 323 322 321 320 318 317 316 315 314 312 310 309 308 307 307 307 307 306 306 306 305 304 304 304 303 304 304 304 304 304 305
334 333 332 330 329 328 327 326 325 324 324 323 321 320 319 318 317 316 315 313 312 310 309 308 307 307 308 306 306 306 306 305 305 304 304 304 304 304 304 304 304 304
334 333 331 330 328 327 327 326 324 324 323 321 320 319 319 318 317 316 314 313 311 310 309 308 307 307 308 306 306 306 306 305 305 304 304 304 304 304 304 304 304 304
334 332 330 329 327 326 326 325 324 323 322 321 320 319 318 318 316 315 314 313 311 310 309 308 307 307 308 306 306 306 306 305 305 305 304 304 304 304 304 304 303 304
333 331 329 328 327 326 325 324 323 323 321 320 319 319 318 317 316 315 313 312 311 310 309 308 307 307 307 306 306 306 305 305 305 305 304 304 304 304 304 304 304 304
332 330 328 327 326 325 324 323 323 322 321 319 318 318 317 316 315 314 313 312 311 310 309 308 308 307 307 307 307 306 305 305 306 305 305 304 304 304 304 304 303 304
331 329 328 327 326 325 324 322 322 321 320 319 318 317 316 315 314 314 313 311 310 309 309 309 308 307 307 307 306 305 305 306 306 305 304 304 304 304 304 304 304 304
330 329 327 326 325 324 323 322 321 320 319 318 317 316 315 315 314 314 313 311 310 309 309 309 308 307 307 306 305 305 306 306 306 305 305 305 305 304 304 304 303 304
329 328 326 325 324 322 322 321 320 319 318 317 316 315 315 314 314 313 312 311 310 309 309 308 308 307 306 304 304 305 306 306 305 306 305 305 305 305 305 305 304 304
328 327 326 324 322 321 321 320 319 318 317 316 315 314 314 313 313 313 312 311 310 309 309 308 307 307 305 304 304 305 306 305 306 306 306 306 305 305 305 305 305 305
328 327 326 323 321 321 321 320 319 317 316 315 315 315 314 313 313 312 311 311 310 309 309 308 307 306 305 304 305 305 305 305 306 306 306 305 305 306 306 306 306 306
328 326 325 323 320 321 321 320 319 317 315 315 315 314 313 312 312 312 311 310 310 309 308 308 307 307 306 305 305 305 305 306 306 306 306 305 305 306 306 306 306 305
327 326 324 321 320 321 321 320 318 316 315 314 314 313 313 312 312 311 310 310 309 309 308 308 308 307 306 305 305 305 305 306 306 306 305 304 305 306 306 305 305 305
Wind_Speed
35 36 36 36 35 34 34 33 33 33 31 30 28 26 24 22 21 19 18 17 16 15 15 14 14 13 13 15 16 16 17 18 18 18 18 18 17 17 16 15 15 14
35 35 35 35 34 33 34 34 33 33 32 30 28 26 24 22 21 19 18 18 17 16 15 15 15 14 15 16 17 17 18 19 18 18 18 18 17 17 17 16 15 15
34 35 36 35 35 34 34 33 32 32 32 30 28 25 24 22 21 19 19 18 18 17 17 16 16 16 16 17 18 18 19 19 19 19 18 18 18 17 17 16 16 15
34 35 36 36 35 35 34 33 32 31 31 30 28 26 24 22 21 20 19 19 18 18 18 18 17 17 17 17 18 18 19 19 19 19 19 18 18 17 17 17 16 16
34 35 36 36 35 35 34 34 33 31 31 31 29 27 25 23 22 22 21 20 19 18 19 19 18 18 18 18 18 19 20 20 20 20 19 19 18 17 17 17 17 18
33 34 36 36 36 36 35 34 34 32 31 31 30 28 27 25 24 23 22 21 20 19 20 20 20 19 19 19 19 20 21 21 21 20 20 20 18 17 18 18 18 19
33 35 36 36 36 36 36 35 34 33 33 31 30 29 28 26 25 24 24 22 21 21 22 22 21 20 20 20 21 21 21 21 22 21 20 20 19 19 19 18 18 18
34 35 36 37 36 36 35 34 34 34 34 33 31 30 29 27 26 25 25 23 22 22 23 22 22 22 22 22 22 22 22 22 21 21 21 20 21 20 18 17 17 17
35 35 36 37 37 36 35 34 34 35 35 34 33 31 29 27 27 26 25 24 22 23 23 23 23 23 23 23 23 23 22 22 21 21 22 21 20 19 18 17 17 16
35 35 36 37 37 36 35 35 35 36 36 35 33 31 30 29 28 27 26 24 24 24 25 24 24 24 24 24 23 23 22 22 22 21 21 21 19 19 18 17 17 16
35 36 37 37 37 36 35 36 36 36 36 35 34 32 31 30 29 27 26 25 25 26 26 26 25 24 25 24 23 22 21 21 22 22 21 20 19 17 16 16 17 16
35 36 37 38 37 36 36 37 37 37 37 36 34 33 32 32 30 28 27 26 26 26 26 26 25 25 25 25 24 23 21 20 22 22 20 19 18 16 15 16 17 16
36 36 37 37 37 37 37 38 38 38 38 37 35 34 33 32 30 29 28 26 26 26 26 26 25 25 25 25 24 23 22 21 22 22 20 18 17 15 15 16 16 15
36 36 37 37 37 38 38 38 38 38 38 37 35 34 34 33 31 29 28 27 26 26 26 26 26 26 26 26 25 24 23 22 22 21 20 18 17 16 16 16 15 13
35 35 37 37 37 38 39 39 39 39 37 36 36 35 34 32 30 30 29 28 27 27 26 26 27 27 26 26 26 24 24 23 22 22 20 20 19 17 16 15 14 12
35 35 36 37 38 38 39 39 38 38 37 36 36 35 34 32 31 30 29 29 28 28 27 27 27 27 26 26 26 25 24 23 22 22 21 20 20 19 17 15 13 11
36 36 37 38 38 38 38 39 38 37 36 35 35 35 33 33 32 31 30 29 29 29 29 28 28 27 26 26 25 25 24 22 22 23 22 20 19 19 17 15 13 11
37 37 37 37 37 38 39 39 38 37 36 34 34 34 34 33 33 32 30 30 30 30 30 29 28 27 26 26 26 25 22 22 22 22 21 19 19 19 17 16 14 12
38 39 39 38 39 39 39 39 38 36 35 34 34 34 34 34 34 32 31 31 31 31 31 30 28 27 27 26 26 24 22 22 22 20 19 20 20 19 17 16 14 13
39 40 40 40 41 40 39 38 37 36 35 34 35 34 35 35 34 33 32 32 32 32 31 30 29 28 28 27 25 22 22 23 21 19 19 20 19 18 16 16 15 14
39 40 41 41 41 40 40 39 38 36 35 34 34 35 36 36 35 34 33 33 33 32 32 31 29 29 29 27 23 22 22 22 21 20 20 19 18 18 16 15 15 15
38 39 39 40 40 40 40 40 37 36 35 35 35 35 35 35 35 35 35 34 33 33 32 32 31 30 29 25 22 23 24 22 20 20 20 19 18 18 17 16 15 15
40 40 39 39 40 41 40 38 36 36 35 36 35 35 35 35 35 35 35 35 34 33 33 33 32 31 28 23 22 24 24 22 22 22 20 18 18 18 18 18 17 16
41 40 39 39 39 40 40 38 36 36 36 37 38 38 37 37 36 35 34 34 34 34 34 34 33 31 27 23 22 24 24 23 23 22 20 19 19 19 19 18 17 17
43 42 40 38 38 39 39 38 37 37 37 38 38 38 37 36 35 34 34 33 34 34 34 34 33 30 26 23 24 25 24 24 23 21 20 20 21 20 18 17 16 17
40 40 36 33 34 36 36 37 38 38 37 37 35 34 33 34 34 34 33 33 33 33 33 33 32 29 26 24 26 26 26 26 25 23 21 22 22 20 17 17 17 17
Wind_Direction
192 189 188 188 189 191 190 190 189 187 185 185 185 183 181 182 185 188 190 192 195 198 198 198 200 201 202 199 197 195 192 189 186 184 184 182 178 174 170 165 163 161
192 190 190 190 191 193 193 193 193 191 188 187 186 184 182 182 184 188 190 190 192 194 195 196 196 197 197 194 192 189 185 184 181 180 181 178 174 172 169 164 161 158
192 191 191 192 192 193 194 194 194 194 191 188 186 186 187 187 186 190 193 191 191 191 194 195 193 194 196 193 191 188 184 181 176 176 176 173 171 169 164 161 158 155
193 192 193 194 195 194 193 192 192 193 192 189 187 188 190 190 189 190 193 192 192 192 194 195 193 193 193 191 190 187 183 180 174 173 173 168 168 165 158 156 151 148
193 192 193 194 195 194 192 191 190 191 191 188 188 190 191 191 190 191 191 190 193 195 193 192 191 191 190 189 188 184 179 176 172 173 171 162 160 159 154 152 145 140
192 191 192 193 194 193 191 191 191 191 190 188 189 191 193 193 192 192 192 191 193 194 192 190 188 188 189 188 186 182 178 174 171 173 168 158 154 152 149 147 141 136
191 190 191 192 192 192 192 191 192 191 189 189 189 190 192 193 193 193 194 194 193 193 192 190 189 188 187 186 183 179 176 174 172 171 164 155 152 150 149 148 143 137
191 190 189 190 190 190 190 190 190 190 189 190 189 190 192 193 193 194 195 194 192 192 191 190 190 189 186 186 183 179 175 173 172 169 163 157 155 153 152 151 146 140
189 189 188 189 189 188 188 188 188 189 190 190 189 189 191 193 195 194 193 193 192 191 190 190 190 188 187 187 185 181 177 175 173 171 165 162 161 160 159 157 150 144
188 187 186 187 187 186 186 186 186 188 189 189 188 188 190 193 196 196 194 193 193 191 190 190 189 188 187 188 186 183 179 175 173 171 169 168 168 165 164 164 159 153
186 186 186 186 185 185 185 184 185 186 188 188 188 188 190 192 194 195 195 194 193 191 190 190 190 189 187 186 185 183 179 175 173 173 172 172 170 166 164 164 163 159
186 186 185 185 184 183 184 184 184 186 187 188 189 189 190 192 193 194 195 195 194 193 192 191 190 189 187 185 184 182 178 175 175 175 174 173 170 166 164 163 162 160
186 186 184 184 183 183 183 183 183 185 187 189 190 190 191 192 192 194 196 196 195 194 193 193 191 188 187 184 183 183 180 176 176 176 175 174 173 169 164 164 165 165
186 185 184 184 183 182 182 183 183 185 187 189 191 191 192 193 193 195 196 195 196 195 195 194 192 189 187 185 184 183 181 179 179 178 174 171 171 170 167 168 170 171
185 184 184 183 182 181 181 183 184 184 186 188 190 192 193 194 195 196 194 194 195 195 195 195 193 190 189 187 185 183 184 183 181 178 174 169 169 171 171 173 175 176
184 184 182 181 181 180 181 183 184 184 185 186 189 191 193 194 195 196 195 194 194 194 194 194 194 193 191 190 188 186 186 185 182 180 177 172 172 173 174 176 178 180
183 182 181 180 180 180 181 183 185 185 185 187 189 191 193 194 195 195 196 196 194 194 194 193 194 194 192 191 191 190 189 186 182 182 180 178 180 180 178 178 178 180
182 180 179 178 179 180 182 184 185 185 185 186 189 191 192 194 195 195 195 196 195 195 194 194 195 195 192 191 191 192 192 189 185 184 184 185 187 186 183 181 181 182
182 179 178 179 180 181 182 183 184 184 185 186 188 190 191 192 193 194 195 195 196 196 195 194 194 194 193 192 192 194 194 191 189 190 191 190 189 189 189 188 188 189
182 179 179 180 181 181 182 183 184 184 186 187 188 188 189 191 192 193 194 196 197 197 195 194 194 194 193 192 194 196 194 193 195 195 195 194 193 194 195 195 196 197
182 180 181 181 180 180 181 183 183 183 185 187 188 188 190 192 193 193 193 196 197 197 195 193 194 194 193 194 196 194 193 196 198 197 197 198 199 201 202 203 204 205
182 182 182 180 178 178 180 181 181 181 184 186 187 188 190 192 192 192 193 195 196 197 195 193 194 194 194 196 197 194 194 198 199 200 201 202 203 206 211 213 213 210
184 185 184 181 178 177 179 180 179 180 183 184 184 186 189 192 193 192 194 195 195 195 194 193 192 193 196 198 197 195 198 199 199 201 203 204 208 211 214 218 221 219
187 188 186 182 178 176 177 178 178 181 183 184 186 188 191 193 193 191 193 196 196 195 195 194 193 194 198 200 196 197 201 200 199 201 201 205 213 216 217 222 226 222
189 190 189 183 176 174 176 178 179 182 183 185 188 191 190 190 191 190 190 193 196 197 197 196 196 197 198 197 196 199 202 200 200 200 201 208 216 215 214 215 213 208
191 190 187 179 171 173 178 180 181 181 182 184 187 189 188 188 190 190 188 190 194 197 197 197 199 199 198 198 199 201 202 202 203 203 204 210 215 210 202 199 197 200